Regional Weather Roundup
Issued by NWS Newport/Morehead, NC

Current Version | Previous Version | Graphics & Text | Print | Product List | Glossary On
Versions: 1 2 3 4 5 6 7 8 9 10 11 12 13 14 15 16 17 18 19 20 21 22 23 24 25 26 27 28 29 30 31 32 33 34 35 36 37 38 39 40 41 42 43 44 45 46 47 48 49 50
000 ASUS42 KMHX 282322 RWRMHX WEATHER ROUNDUP FOR EASTERN NORTH CAROLINA NATIONAL WEATHER SERVICE NEWPORT/MOREHEAD CITY NC 700 PM EDT THU AUG 28 2014 NOTE: "FAIR" INDICATES FEW OR NO CLOUDS BELOW 12,000 FEET WITH NO SIGNIFICANT WEATHER AND/OR OBSTRUCTIONS TO VISIBILITY NCZ015>017-031-032-045>047-102-103-290000- NORTH COAST CITY SKY/WX TMP DP RH WIND PRES REMARKS EDENTON PTCLDY 83 75 75 E9 29.96R ELIZABETH CITY PTCLDY 80 72 76 E6 29.96S KITTY HAWK MOCLDY 77 69 75 E3 29.96S MANTEO MOCLDY 77 69 76 E5 29.98S $$ NCZ045>047-081-094-103-104-290000- CENTRAL COAST CITY SKY/WX TMP DP RH WIND PRES REMARKS FRISCO CLEAR 80 71 74 SW8 29.97R SWANQUARTER N/A 84 N/A N/A S3 29.91S $$ NCZ095-097-098-100-101-290000- SOUTHERN COAST CITY SKY/WX TMP DP RH WIND PRES REMARKS BEAUFORT CLEAR 83 71 67 SW8 29.97S CEDAR ISLAND N/A 84 N/A N/A S9 30.00S JACKSONVILLE CLEAR 84 69 60 S6 29.96R NEWPORT NOT AVBL PINEY ISLAND CLEAR 85 71 63 S9 29.96R WILMINGTON CLEAR 86 67 52 SW10 29.97R $$ NCZ011>013-027>030-043-044-078>080-089-090>093-098-290000- COASTAL PLAIN CITY SKY/WX TMP DP RH WIND PRES REMARKS AHOSKIE CLEAR 81 76 82 CALM 29.96S CLINTON NOT AVBL ELIZABETHTOWN CLEAR 87 67 51 S3 29.96S GOLDSBORO CLEAR 88 77 70 NW2 29.94R HX 100 GREENVILLE CLEAR 86 73 66 CALM 29.98S HAVELOCK CLEAR 84 68 58 S8 29.97S KENANSVILLE CLEAR 85 73 67 CALM 29.97R KINSTON CLEAR 88 72 58 N3 29.96S NEW BERN MOCLDY 86 71 60 S7 29.97R RICHLANDS CLEAR 86 70 58 SW3 29.96S ROANOKE RAPIDS NOT AVBL ROCKY MOUNT CLEAR 85 77 77 CALM 29.96R WASHINGTON CLEAR 84 73 69 CALM 29.96S WHITEVILLE CLEAR 84 69 59 CALM 29.97S $$ AMZ130-135-150-152-154-156-158-170-250-252-270-ANZ085-086-088-633-658-670-290000- MARINE OBSERVATIONS STATION/POSITION TIME TEMP WIND PRES WAVE SWELL AIR SEA DIR/SP/G HT/PER HT/PER (UTC) (F) (DEG/KT/KT) (MB) (FT/S) (FT/S) CHESAPEAKE LIGHT 2300 78 130/ 3/ 3 1015.1 BUOY 44014 2300 78 76 CALM / 2 1014.4 4/11 5/11 DUCK 2300 78 78 110/ 6/ 7 1014.1 2E DUCK 2200 N/A 3/11 2/11 OREGON INLET 2300 77 78 70/ 6/ 9 1015.1 BUOY 44095 2300 77 N/A 3/10 2/11 20E OREGON INLET NOT AVBL HATTERAS CG 2300 81 80 230/ 6/ 10 1015.2 DIAMOND BUOY 2300 82 230/ 12/ 14 1014.6 5/10 5/10 CAPE LOOKOUT 2300 81 230/ 6/ 8 1014.9 BEAUFORT LAB 2300 82 81 210/ 4/ 7 1014.5 30 SE NEW RIVER 2300 82 81 230/ 12/ 14 1015.3 4/10 3/10 5 SE WRIGHTSVILL 2300 79 81 220/ 14/ 16 N/A BUOY 41002 2159 81 83 250/ 4/ 6 1017.1 5/ 8 5/ 8 BUOY 41004 2300 81 84 220/ 6/ 8 1015.7 4/10 5/10 $$

USA.gov is the U.S. government's official web portal to all federal, state and local government web resources and services.